Wiscasset, ME

8:07 PM EDT on October 22, 2017 (GMT -0400)
Wiscasset

Weather History for KIWI - October, 2013

Change the Weather History Date:

Monday, October 7, 2013

  Actual Average Record
Temperature  
Mean Temperature 58 °F -  
Max Temperature 66 °F 58 °F 75 °F (2005)
Min Temperature 50 °F 37 °F 28 °F (1998)
Degree Days  
Heating Degree Days 7    
Growing Degree Days 8 (Base 50)    
Moisture  
Dew Point 58 °F    
Average Humidity 97    
Maximum Humidity 100    
Minimum Humidity 90    
Precipitation  
Precipitation 0.47 in - - ()
Sea Level Pressure  
Sea Level Pressure 30.01 in    
Wind  
Wind Speed 6 mph (SSE)    
Max Wind Speed 18 mph    
Max Gust Speed 29 mph    
Visibility 3 miles    
Events Fog , Rain    
Averages and records for this station are not official NWS values.
T = Trace of Precipitation, MM = Missing Value Source: NWS Daily Summary

Daily Weather History Graph

Daily Weather History Graph

Search for Another Location

Airport or City:

Trip Planner

Search our weather history database for the weather conditions in past years. The results will help you decide how hot, cold, wet, or windy it might be!

Date:

Astronomy

Oct. 07, 2013 Rise Set
Actual Time 6:43 AM EDT 6:08 PM EDT
Civil Twilight 6:15 AM EDT 6:37 PM EDT
Nautical Twilight 5:41 AM EDT 7:10 PM EDT
Astronomical Twilight 5:08 AM EDT 7:44 PM EDT
Moon 9:36 AM EDT (10/7) 7:44 PM EDT (10/7)
Length of Visible Light 12h 22m
Length of Day
11h 24m
Waxing Crescent, 8% of the Moon is Illuminated
Oct 7
Waxing Crescent
Oct 11
First Quarter
Oct 18
Full
Oct 26
Last Quarter
Nov 3
New

Hourly Weather History & Observations

Time (EDT) Temp. Dew Point Humidity Pressure Visibility Wind Dir Wind Speed Gust Speed Precip Events Conditions
12:41 AM 50.0 °F 48.2 °F 94% 30.22 in 5.0 mi East 5.8 mph - N/A   Overcast
12:53 AM 50.0 °F 48.0 °F 93% 30.22 in 3.0 mi East 4.6 mph - N/A   Overcast
1:04 AM 50.0 °F 48.2 °F 94% 30.21 in 2.5 mi East 4.6 mph - 0.01 in   Overcast
1:18 AM 50.0 °F 48.2 °F 94% 30.21 in 2.5 mi East 4.6 mph - 0.01 in   Overcast
1:26 AM 50.0 °F 48.2 °F 94% 30.21 in 3.0 mi Variable 4.6 mph - 0.01 in   Overcast
1:53 AM 51.1 °F 48.9 °F 92% 30.20 in 2.5 mi ENE 3.5 mph - 0.01 in   Overcast
2:31 AM 51.8 °F 51.8 °F 100% 30.18 in 3.0 mi Calm Calm - 0.02 in   Overcast
2:39 AM 51.8 °F 51.8 °F 100% 30.18 in 2.5 mi East 3.5 mph - 0.02 in   Overcast
2:53 AM 52.0 °F 51.1 °F 97% 30.18 in 3.0 mi East 3.5 mph - 0.03 in Rain Light Rain
3:10 AM 53.6 °F 51.8 °F 94% 30.17 in 2.5 mi East 3.5 mph - 0.00 in   Overcast
3:31 AM 53.6 °F 51.8 °F 94% 30.17 in 3.0 mi ESE 3.5 mph - 0.01 in   Overcast
3:49 AM 53.6 °F 53.6 °F 100% 30.16 in 2.5 mi ESE 3.5 mph - 0.02 in   Overcast
3:53 AM 54.0 °F 53.1 °F 97% 30.16 in 2.5 mi East 3.5 mph - 0.03 in Rain Light Rain
4:53 AM 54.0 °F 53.1 °F 97% 30.15 in 3.0 mi East 4.6 mph - 0.04 in Rain Light Rain
5:03 AM 53.6 °F 53.6 °F 100% 30.14 in 2.5 mi ESE 4.6 mph - N/A   Overcast
5:20 AM 53.6 °F 53.6 °F 100% 30.13 in 4.0 mi East 4.6 mph - 0.01 in   Overcast
5:38 AM 53.6 °F 53.6 °F 100% 30.13 in 2.5 mi East 6.9 mph - 0.01 in   Overcast
5:53 AM 54.0 °F 53.1 °F 97% 30.13 in 3.0 mi East 4.6 mph - 0.01 in   Overcast
6:53 AM 55.0 °F 54.0 °F 96% 30.12 in 4.0 mi East 4.6 mph - 0.02 in Rain Light Rain
7:53 AM 55.9 °F 55.0 °F 97% 30.10 in 7.0 mi Calm Calm - 0.01 in Rain Light Rain
8:04 AM 55.4 °F 55.4 °F 100% 30.10 in 1.8 mi Calm Calm - 0.09 in Rain Heavy Rain
8:12 AM 55.4 °F 55.4 °F 100% 30.10 in 1.2 mi East 3.5 mph - 0.16 in Rain Heavy Rain
8:17 AM 55.4 °F 55.4 °F 100% 30.10 in 2.0 mi ENE 3.5 mph - 0.17 in Rain Light Rain
8:26 AM 55.4 °F 55.4 °F 100% 30.09 in 6.0 mi East 4.6 mph - 0.17 in Rain Light Rain
8:53 AM 57.9 °F 55.9 °F 93% 30.09 in 2.5 mi Calm Calm - 0.18 in Rain Light Rain
9:12 AM 57.2 °F 57.2 °F 100% 30.09 in 4.0 mi Calm Calm - 0.01 in   Overcast
9:53 AM 60.1 °F 59.0 °F 96% 30.08 in 5.0 mi South 3.5 mph - 0.01 in   Overcast
10:02 AM 60.8 °F 59.0 °F 94% 30.07 in 5.0 mi South 5.8 mph - N/A   Overcast
10:26 AM 60.8 °F 59.0 °F 94% 30.07 in 2.0 mi Variable 4.6 mph - N/A   Overcast
10:33 AM 60.8 °F 60.8 °F 100% 30.06 in 1.8 mi South 5.8 mph - N/A   Overcast
10:44 AM 60.8 °F 60.8 °F 100% 30.06 in 0.8 mi SSE 4.6 mph - N/A   Overcast
10:53 AM 60.1 °F 60.1 °F 100% 30.06 in 0.5 mi Variable 3.5 mph - N/A Fog Fog
11:53 AM 61.0 °F 61.0 °F 100% 30.03 in 0.5 mi South 9.2 mph - N/A Fog Fog
12:31 PM 62.6 °F 60.8 °F 94% 30.00 in 1.5 mi Variable 6.9 mph - N/A   Overcast
12:37 PM 62.6 °F 62.6 °F 100% 30.00 in 3.0 mi Variable 5.8 mph - N/A   Overcast
12:53 PM 63.0 °F 62.1 °F 97% 29.99 in 6.0 mi South 8.1 mph - N/A   Overcast
1:31 PM 62.6 °F 62.6 °F 100% 29.96 in 1.8 mi South 11.5 mph 20.7 mph 0.00 in Rain Light Rain
1:43 PM 62.6 °F 62.6 °F 100% 29.96 in 3.0 mi South 9.2 mph 18.4 mph 0.01 in Rain Light Rain
1:51 PM 62.6 °F 62.6 °F 100% 29.95 in 2.5 mi South 11.5 mph 20.7 mph 0.01 in Rain Light Rain
1:53 PM 63.0 °F 62.1 °F 97% 29.95 in 2.0 mi South 11.5 mph 20.7 mph 0.02 in Rain Light Rain
2:04 PM 62.6 °F 62.6 °F 100% 29.95 in 6.0 mi South 10.4 mph 20.7 mph 0.00 in Rain Light Rain
2:49 PM 62.6 °F 62.6 °F 100% 29.93 in 2.0 mi South 10.4 mph 19.6 mph 0.01 in   Overcast
2:53 PM 63.0 °F 62.1 °F 97% 29.93 in 2.0 mi South 8.1 mph 16.1 mph 0.01 in   Overcast
3:27 PM 62.6 °F 62.6 °F 100% 29.92 in 1.8 mi South 10.4 mph 16.1 mph N/A   Overcast
3:39 PM 64.4 °F 62.6 °F 94% 29.91 in 1.0 mi South 10.4 mph 24.2 mph N/A   Overcast
3:53 PM 63.0 °F 62.1 °F 97% 29.91 in 1.0 mi South 10.4 mph 26.5 mph N/A   Overcast
4:20 PM 62.6 °F 62.6 °F 100% 29.89 in 2.0 mi SSW 8.1 mph 17.3 mph 0.00 in Rain Light Rain
4:42 PM 64.4 °F 62.6 °F 94% 29.88 in 4.0 mi South 12.7 mph 21.9 mph 0.01 in   Overcast
4:49 PM 64.4 °F 62.6 °F 94% 29.88 in 1.8 mi South 12.7 mph 21.9 mph 0.01 in   Overcast
4:53 PM 64.0 °F 63.0 °F 96% 29.88 in 1.5 mi South 12.7 mph 21.9 mph 0.01 in   Overcast
5:07 PM 64.4 °F 62.6 °F 94% 29.88 in 1.2 mi South 15.0 mph 24.2 mph N/A   Overcast
5:19 PM 64.4 °F 62.6 °F 94% 29.88 in 1.5 mi South 13.8 mph 21.9 mph N/A   Overcast
5:25 PM 64.4 °F 62.6 °F 94% 29.88 in 0.8 mi South 10.4 mph 21.9 mph N/A   Overcast
5:53 PM 63.0 °F 63.0 °F 100% 29.88 in 0.5 mi SSW 10.4 mph 19.6 mph N/A Fog Fog
6:09 PM 62.6 °F 62.6 °F 100% 29.87 in 1.2 mi SSW 11.5 mph 20.7 mph N/A   Overcast
6:13 PM 62.6 °F 62.6 °F 100% 29.87 in 2.0 mi South 11.5 mph 20.7 mph N/A   Overcast
6:21 PM 62.6 °F 62.6 °F 100% 29.87 in 5.0 mi South 12.7 mph 25.3 mph N/A   Overcast
6:53 PM 63.0 °F 62.1 °F 97% 29.87 in 9.0 mi South 11.5 mph 23.0 mph N/A   Overcast
7:16 PM 62.6 °F 60.8 °F 94% 29.86 in 9.0 mi South 11.5 mph 21.9 mph N/A   Overcast
7:50 PM 64.4 °F 62.6 °F 94% 29.85 in 7.0 mi South 11.5 mph 24.2 mph N/A   Overcast
7:53 PM 64.0 °F 62.1 °F 93% 29.85 in 7.0 mi South 13.8 mph 24.2 mph N/A   Overcast
8:53 PM 64.9 °F 64.0 °F 97% 29.84 in 9.0 mi South 9.2 mph 21.9 mph N/A   Overcast
9:53 PM 66.9 °F 64.0 °F 90% 29.82 in 9.0 mi SSW 11.5 mph 27.6 mph N/A   Overcast
10:53 PM 66.9 °F 64.0 °F 90% 29.83 in 8.0 mi SW 18.4 mph 28.8 mph N/A   Overcast
11:04 PM 64.4 °F 62.6 °F 94% 29.83 in 2.0 mi WSW 5.8 mph 24.2 mph 0.07 in Rain Light Rain
11:10 PM 64.4 °F 62.6 °F 94% 29.83 in 4.0 mi WSW 3.5 mph - 0.09 in Rain Light Rain
11:53 PM 63.0 °F 62.1 °F 97% 29.83 in 10.0 mi SSW 4.6 mph - 0.09 in   Overcast